www.pogodaiklimat.ru

Погода и климат >> Архив погоды >> Иран >> Bandar Lengeh


ПОГОДА в Bandar Lengeh

  • Прогноз погоды в Bandar Lengeh
  • Монитор погоды в Bandar Lengeh
  • Климат города

АРХИВ ПОГОДЫ в Bandar Lengeh

Время (UTC), дата Ветер
(напр.,м/с)
 
Видим.   Явления Облачность Т
(С)
Тd
(С)
f
(%)
Тe
(С)
Тes
(С)
Комфортность P
(гПа)
Po
(гПа)
Тmin
(С)
Tmax
(С)
R
(мм)
R24
(мм)
S
(см)
09 19.09 Ю 4 6000 м мгла ясно +35.5 +25.7 57 +50 +62 опасность
перегрева
1007.0 1004.8
12 19.09 ЮЗ 4 6000 м мгла ясно +34.0 +26.4 65 +51 +55 опасность
перегрева
1005.1 1003.0
15 19.09 З 4 6000 м мгла ясно +32.9 +26.7 70 +50 +50 опасность
перегрева
1004.8 1002.7 +36.3
18 19.09 З 3 6000 м мгла ясно +31.7 +26.5 74 +48 +48 опасность
перегрева
1004.9 1002.8
21 19.09 З 2 6000 м дымка ясно +30.5 +26.6 80 +47 +47 опасность
перегрева
1004.1 1002.0
00 20.09 штиль 0 5000 м дымка ясно +29.2 +26.4 85 +45 +45 опасность
перегрева
1004.1 1002.0
03 20.09 штиль 0 4000 м дымка 4/0
[Ac As]
+29.3 +27.7 91 +48 +48 опасность
перегрева
1005.2 1003.1 +28.8
06 20.09 штиль 0 5000 м мгла ясно +34.0 +27.2 68 +53 +68 опасность
перегрева
1006.7 1004.5
09 20.09 Ю 3 5000 м мгла ясно +35.4 +28.1 66 +56 +70 опасность
перегрева
1006.5 1004.3
12 20.09 штиль 0 5000 м мгла 4/0
[As trans]
+34.8 +27.0 64 +53 +59 опасность
перегрева
1003.9 1001.8
15 20.09 штиль 0 5000 м мгла 5/0
[Ac trans]
+33.0 +26.1 67 +49 +49 опасность
перегрева
1003.9 1001.8 +36.2
18 20.09 штиль 0 5000 м мгла ясно +31.8 +27.3 77 +50 +50 опасность
перегрева
1004.7 1002.6
21 20.09 штиль 0 6000 м мгла ясно +30.0 +25.5 77 +44 +44 опасность
перегрева
1004.0 1001.9
00 21.09 штиль 0 5000 м дымка ясно +31.0 +28.4 86 +52 +52 опасность
перегрева
1004.2 1002.1
03 21.09 В 4 5000 м дымка ясно +31.0 +27.3 81 +49 +50 опасность
перегрева
1003.2 1001.1 +27.4
06 21.09 ЮВ 6 5000 м мгла 4/0
[As trans]
+33.8 +26.2 65 +50 +54 опасность
перегрева
1006.7 1004.5
09 21.09 штиль 0 5000 м мгла 4/0
[As trans]
+36.0 +23.9 50 +47 +65 опасность
перегрева
1006.7 1004.5
12 21.09 ЮЗ 4 5000 м мгла 4/0
[As trans]
+35.6 +26.1 58 +51 +54 опасность
перегрева
1004.7 1002.6
15 21.09 штиль 0 6000 м мгла ясно +35.0 +21.3 45 +43 +43 опасность
перегрева
1004.7 1002.6 +38.2
18 21.09 штиль 0 8000 м мгла ясно +35.4 +15.1 30 +37 +37 очень
душно
1006.4 1004.2
21 21.09 штиль 0 8000 м мгла ясно +33.6 +17.4 38 +37 +37 очень
душно
1006.7 1004.5
00 22.09 штиль 0 6000 м мгла ясно +30.6 +22.3 61 +40 +40 очень
душно
1006.7 1004.5
03 22.09 штиль 0 4000 м мгла ясно +29.6 +25.1 77 +43 +43 опасность
перегрева
1006.2 1004.1 +24.8
06 22.09 В 3 5000 м мгла ясно +35.5 +24.4 53 +48 +57 опасность
перегрева
1008.3 1006.2
09 22.09 Ю 2 6000 м мгла ясно +37.1 +27.2 57 +55 +72 опасность
перегрева
1007.3 1005.2
12 22.09 ЮЗ 2 6000 м мгла ясно +35.5 +26.3 59 +52 +57 опасность
перегрева
1005.5 1003.4
15 22.09 штиль 0 5000 м мгла ясно +33.6 +24.8 60 +47 +47 опасность
перегрева
1006.2 1004.0 +38.9
18 22.09 штиль 0 5000 м мгла ясно +32.7 +20.5 49 +40 +40 очень
душно
1007.3 1005.2
21 22.09 штиль 0 5000 м мгла ясно +30.5 +21.0 57 +38 +38 очень
душно
1006.8 1004.7
00 23.09 В 2 5000 м мгла ясно +31.4 +26.9 77 +49 +49 опасность
перегрева
1006.8 1004.7
03 23.09 В 4 5000 м дымка ясно +30.8 +27.7 84 +50 +51 опасность
перегрева
1007.9 1005.8 +29.3
06 23.09 В 5 6000 м мгла ясно +34.5 +23.4 53 +45 +51 опасность
перегрева
1009.6 1007.5
09 23.09 ЮВ 3 6000 м мгла ясно +36.6 +26.3 56 +53 +67 опасность
перегрева
1008.3 1006.2
12 23.09 ЮВ 3 6000 м мгла ясно +36.0 +25.2 54 +50 +55 опасность
перегрева
1006.9 1004.8
15 23.09 штиль 0 7000 м мгла ясно +33.5 +24.5 59 +46 +46 опасность
перегрева
1007.0 1004.9 +37.1
18 23.09 штиль 0 7000 м мгла ясно +31.7 +20.9 53 +39 +39 очень
душно
1007.7 1005.6
21 23.09 штиль 0 6000 м мгла ясно +29.5 +24.1 73 +41 +41 опасность
перегрева
1007.1 1005.0
00 24.09 штиль 0 6000 м мгла ясно +29.5 +25.3 78 +43 +43 опасность
перегрева
1006.4 1004.3
03 24.09 В 2 5000 м дымка ясно +29.6 +27.4 88 +48 +48 опасность
перегрева
1007.4 1005.3 +29.0
06 24.09 Ю 2 5000 м мгла ясно +34.2 +26.8 65 +51 +63 опасность
перегрева
1009.2 1007.1
09 24.09 ЮЗ 5 4000 м мгла ясно +35.2 +27.3 64 +54 +63 опасность
перегрева
1007.9 1005.7
12 24.09 ЮЗ 5 4000 м мгла ясно +34.3 +28.1 70 +55 +58 опасность
перегрева
1006.0 1003.9
15 24.09 З 3 5000 м мгла ясно +32.5 +26.6 71 +49 +49 опасность
перегрева
1006.3 1004.2 +35.7
18 24.09 З 3 5000 м мгла ясно +31.8 +26.9 75 +49 +49 опасность
перегрева
1007.0 1004.9
21 24.09 З 3 6000 м дымка ясно +31.4 +28.2 83 +52 +52 опасность
перегрева
1005.6 1003.5
00 25.09 З 3 6000 м дымка ясно +30.9 +28.6 88 +53 +53 опасность
перегрева
1004.8 1002.7
03 25.09 штиль 0 3000 м дымка 3/3 300 м
[St]
+30.2 +27.8 87 +49 +50 опасность
перегрева
1006.2 1004.1 +29.0
06 25.09 ЮЗ 3 4000 м мгла 3/3 450 м
[St]
+34.1 +27.3 68 +53 +60 опасность
перегрева
1007.6 1005.4
09 25.09 ЮЗ 4 3500 м мгла 1/1 600 м
[Cu hum]
+35.4 +27.8 65 +56 +65 опасность
перегрева
1006.3 1004.1
12 25.09 З 6 3000 м мгла 1/1 900 м
[Cu med, cong]
+35.8 +24.8 53 +49 +51 опасность
перегрева
1004.0 1001.9
15 25.09 З 3 4000 м мгла ясно +33.5 +25.3 62 +48 +48 опасность
перегрева
1004.4 1002.3 +36.2
18 25.09 З 3 6000 м мгла ясно +32.8 +26.9 71 +50 +50 опасность
перегрева
1005.1 1003.0
21 25.09 штиль 0 8000 м мгла ясно +31.2 +24.6 68 +44 +44 опасность
перегрева
1004.7 1002.6
00 26.09 С 3 8000 м мгла ясно +29.5 +24.5 75 +42 +42 опасность
перегрева
1004.4 1002.3
03 26.09 В 3 5000 м мгла ясно +30.5 +25.6 75 +45 +45 опасность
перегрева
1005.6 1003.5 +29.3

 

Местоположение метеостанции Bandar Lengeh (Иран): широта 26.58 долгота 54.83 высота над уровнем моря 14 м.

В архиве по умолчанию представлена погода в Bandar Lengeh за последнюю неделю. Архивные данные за месяц целиком и за предыдущие месяцы, начиная с января 2011 года, Вы можете получить, выбрав интересующий диапазон дат из раскрывающегося списка и нажав кнопку "Ввод!".


*Определитесь, кто Вы:
робот инопланетянин человек

Внимание! Время в таблицах - всемирное. Для получения местного времени необходимо прибавить поправку, которая в Bandar Lengeh равна 3.5 ч.

Смотрите также архив погоды в соседних городах и на ближайших метеорологических станциях:

Погода в Sirri Island (Иран) (80 км)
Погода в Abu Musa Island (Иран) (83 км)
Погода в Kish Island (Иран) (85 км)
Погода в Khasab (Оман) (146 км)
Погода в Khasab Airport (Оман) (147 км)
Погода в Ras Al Khaimah Int Airport (ОАЭ) (153 км)
Погода в Sharjah (ОАЭ) (155 км)
Погода в Dubai (ОАЭ) (156 км)
Погода в Bandarabbass (Иран) (169 км)
Погода в Diba (Оман) (178 км)

Пояснения к столбцам:

Ветер - указаны скорость ветра в м/с - средняя за 10 мин, порывы в срок и между сроками (в фигурных скобках) и направление, откуда дует ветер: С - северный, СВ - северо-восточный, В - восточный, ЮВ - юго-восточный, Ю - южный, ЮЗ - юго-западный, З - западный, СЗ - северо-западный.
Видимость - горизонтальная дальность видимости в метрах или километрах. При видимости от 1 до 10 км при отсутствии осадков обычно наблюдается дымка, при ухудшении видимости до 1 км и менее - туман. В сухую погоду видимость может ухудшаться дымом, пылью или мглою.
Явления - указаны атмосферные явления, наблюдавшиеся в срок или в последний час перед сроком; фигурными скобками обозначены явления, наблюдавшиеся между сроками (за 1-3 часа до срока); квадратными скобками обозначены град или гололедные отложения с указанием их диаметра в мм.
Облачность - указаны через наклонную черту общая и нижняя облачность в баллах и высота нижней границы облаков в метрах; квадратными скобками обозначены формы облаков: Ci - перистые, Cs - перисто-слоистые, Cc - перисто-кучевые, Ac - высококучевые, As - высокослоистые, Sc - слоисто-кучевые, Ns - слоисто-дождевые, Cu - кучевые, Cb - кучево-дождевые. Подробнее классификацию облаков см. в Атласе облаков (PDF).
T - Температура воздуха - температура, измеренная на высоте 2 м над землей.
Td - Температура точки росы - температура, при понижении до которой содержащийся в воздухе водяной пар достигнет насыщения.
f - Относительная влажность воздуха - влажноcть воздуха, измеренная на высоте 2 м над землей.
Te - Эффективная температура - температура, которую ощущает одетый по сезону человек в тени. Характеристика душности погоды. При расчете учитывается влияние влажности воздуха и скорости ветра на теплоощущения человека.
Tes - Эффективная температура на солнце - температура, которую ощущает человек, с поправкой на солнечный нагрев. Характеристика знойности погоды. Зависит от высоты солнца над горизонтом, облачности и скорости ветра. Ночью, в пасмурную погоду, а также при ветре 12 м/с и более поправка равна нулю.
P - Атмосферное давление - приведенное к уровню моря атмосферное давление.
Po - Атмосферное давление - измеренное на уровне метеостанции атмосферное давление.
Tmin - Минимальная температура - минимум температуры воздуха на высоте 2 м над землей.
Tmax - Максимальная температура - максимум температуры воздуха на высоте 2 м над землей.
R - Количество осадков - Количество выпавших осадков за период времени, мм. При наведении курсора мыши на число - период времени, за который выпало указанное количество осадков.
R24 - Количество осадков - Количество выпавших осадков за 24 часа, мм.
S - Снежный покров - Высота снежного покрова, см. При наведении курсора мыши на число - состояние снежного покрова и степень покрытия местности в баллах.